EDT,Max TemperatureF,Mean TemperatureF,Min TemperatureF,Max Dew PointF,MeanDew PointF,Min DewpointF,Max Humidity, Mean Humidity, Min Humidity, Max Sea Level PressureIn, Mean Sea Level PressureIn, Min Sea Level PressureIn, Max VisibilityMiles, Mean VisibilityMiles, Min VisibilityMiles, Max Wind SpeedMPH, Mean Wind SpeedMPH, Max Gust SpeedMPH,PrecipitationIn, CloudCover, Events, WindDirDegrees
2011-10-1,69,62,55,62,51,41,94,70,42,29.93,29.80,29.69,10,10,10,20,13,,0.00,1,,309
2011-10-2,66,56,48,45,43,39,77,59,40,30.06,29.96,29.92,10,10,10,20,13,21,0.00,1,,295
2011-10-3,69,56,44,48,43,37,96,63,32,30.15,30.08,30.04,10,10,10,12,4,23,0.00,0,,294
2011-10-4,71,61,51,50,48,46,93,68,42,30.19,30.16,30.12,10,10,10,15,5,,0.00,0,,333
2011-10-5,75,65,55,56,54,51,93,72,46,30.24,30.19,30.15,10,10,9,12,6,,0.00,0,,329
2011-10-6,77,64,54,61,55,52,97,71,46,30.33,30.27,30.21,10,10,10,14,6,24,0.00,0,,35
2011-10-7,75,66,57,60,56,52,90,73,54,30.43,30.37,30.32,10,10,10,12,6,18,0.00,0,,47
2011-10-8,77,67,57,60,57,54,93,74,50,30.44,30.41,30.38,10,10,10,16,8,22,0.00,0,,39
2011-10-9,78,71,64,64,62,61,90,78,62,30.37,30.33,30.27,10,10,10,14,9,22,0.00,1,,43
2011-10-10,75,72,68,68,66,61,90,83,73,30.25,30.13,30.04,10,10,10,9,8,16,0.01,1,Rain,54
2011-10-11,75,70,66,68,64,56,93,81,61,30.03,29.95,29.91,10,9,2,17,10,28,0.38,6,Rain,82
2011-10-12,81,76,71,73,70,66,94,86,77,29.91,29.84,29.79,10,9,2,20,8,30,0.19,6,Rain-Thunderstorm,121
2011-10-13,79,74,69,73,70,66,100,87,76,29.80,29.74,29.66,10,10,2,15,8,23,0.04,3,Rain-Thunderstorm,180
2011-10-14,75,72,68,69,60,49,91,69,42,29.87,29.70,29.61,10,10,7,21,10,26,0.03,1,Rain,244
2011-10-15,75,67,59,62,54,47,69,57,44,30.01,29.93,29.88,10,10,10,17,10,,0.00,0,,245
2011-10-16,73,65,57,55,46,41,78,50,31,30.15,30.07,30.02,10,10,10,15,5,,0.00,0,,275
2011-10-17,78,74,70,68,64,56,87,72,60,30.02,29.95,29.90,10,10,10,16,13,23,0.00,0,,227
2011-10-18,79,74,71,71,68,64,97,84,64,29.94,29.82,29.66,10,8,1,22,9,31,0.48,3,Rain,171
2011-10-19,75,73,66,74,72,55,100,94,68,29.65,29.49,29.35,10,4,0,26,11,38,3.37,7,Fog-Rain-Thunderstorm,185
2011-10-20,64,59,54,50,47,44,72,64,54,29.99,29.79,29.57,10,10,10,26,21,39,0.00,1,,250
2011-10-21,64,57,50,49,45,43,93,69,53,30.09,30.05,30.00,10,10,10,13,7,,0.00,0,,264
2011-10-22,70,59,48,55,52,47,100,78,57,30.10,30.07,30.04,10,10,10,13,5,17,0.00,2,,16
2011-10-23,70,64,57,57,54,51,90,73,51,30.12,30.09,30.06,10,10,10,12,8,17,0.00,3,,32
2011-10-24,73,64,57,58,56,52,97,77,53,30.08,30.04,29.98,10,9,7,15,7,,0.00,2,,356
2011-10-25,70,60,50,53,47,41,89,68,36,30.24,30.17,30.09,10,10,10,21,6,26,0.00,0,,346
2011-10-26,73,59,46,59,53,46,100,77,59,30.19,30.08,29.97,10,10,8,16,4,21,0.00,0,,232
2011-10-27,75,70,66,64,61,58,81,72,60,29.96,29.88,29.80,10,10,10,20,14,26,0.00,0,,233
2011-10-28,68,62,57,61,53,48,94,78,63,30.09,30.01,29.91,10,10,10,23,12,34,0.00,7,,23
2011-10-29,62,54,44,60,51,35,100,84,67,30.08,29.88,29.81,10,9,2,26,12,34,0.00,6,,333
2011-10-30,57,48,39,37,35,30,79,63,39,30.36,30.27,30.10,10,10,10,17,10,29,0.00,0,,11
2011-10-31,64,54,44,55,49,38,97,76,54,30.35,30.19,30.08,10,9,2,24,9,31,0.21,4,Rain-Thunderstorm,35